{"data":{"norad_id":64864,"epoch":"2026-05-25T03:28:15.410784Z","epoch_age_seconds":52666,"freshness":"FRESH","line1":"1 64864U 25152Y   26145.14462281  .00005053  00000+0  35396-3 0  9990","line2":"2 64864  97.4486   0.5194 0001939  85.8283 274.3165 15.05658131 46927","mean_motion":15.05658131,"eccentricity":0.0001939,"inclination_deg":97.4486,"raan_deg":0.5194,"arg_perigee_deg":85.8283,"mean_anomaly_deg":274.3165,"bstar":0.00035396,"rev_number":4692,"period_min":95.639240432595,"perigee_km":548.14294697395,"apogee_km":550.82947925599,"semimajor_km":6927.623213115,"source":"CELESTRAK","updated_at":"2026-05-25T13:38:20.617919Z"}}